Temperature
17 17 17 17 17 17 17 17 17 16 16 17 16 16 16 16 16 16 16 15 15 15 15 15 15 15 16 16 16 16 16 16 15 15 15 15 15 15
17 16 16 16 16 16 17 17 17 17 16 16 16 16 16 16 15 15 15 15 15 15 15 15 15 15 15 15 15 15 15 15 15 15 15 15 15 15
16 16 16 16 16 16 16 16 16 16 16 16 16 16 16 15 15 15 15 15 15 15 15 15 15 15 15 15 15 15 15 15 15 15 15 15 15 15
16 16 16 16 16 16 16 16 16 16 16 15 15 15 15 15 15 15 15 15 15 15 15 15 15 15 15 15 15 15 15 15 15 15 15 15 15 14
15 15 15 15 15 15 15 15 15 15 15 15 15 15 15 15 15 15 15 14 14 14 15 15 15 15 15 15 15 15 15 15 15 15 14 14 14 14
15 15 15 15 15 15 15 15 15 15 15 15 15 15 15 15 14 14 14 14 14 14 14 14 14 14 15 15 15 15 15 15 14 14 14 14 14 14
15 15 15 15 15 14 14 14 14 14 14 14 14 14 14 14 14 14 14 14 14 14 14 14 14 14 14 14 14 15 14 14 14 14 14 14 14 14
14 14 14 14 14 14 14 14 14 14 14 14 14 14 14 14 14 14 14 14 13 14 14 14 14 14 14 14 14 14 14 14 14 14 14 14 14 13
14 14 14 14 14 14 14 14 14 14 14 14 14 14 14 14 14 14 14 14 14 14 14 14 14 14 14 14 14 14 14 14 14 14 14 14 14 13
14 14 14 14 14 14 14 14 14 14 14 14 14 14 14 14 14 13 13 13 13 13 14 13 14 14 14 14 14 14 14 14 14 14 14 14 13 13
14 14 14 13 13 13 13 13 13 14 14 13 13 13 14 14 13 13 13 13 13 13 13 13 13 13 13 13 13 13 13 13 13 13 13 13 13 13
13 13 13 13 13 13 13 13 13 13 13 13 13 13 13 13 13 13 13 13 13 13 13 13 13 13 13 13 13 13 13 13 13 13 13 13 13 13
13 13 13 13 13 13 13 13 13 13 13 13 13 13 13 13 13 13 13 13 13 13 13 13 13 13 13 13 13 13 13 13 13 13 13 13 13 13
13 13 13 13 13 13 13 13 13 13 13 13 13 13 13 13 13 13 13 13 13 13 13 13 13 13 13 13 12 13 13 13 13 13 13 12 12 12
13 13 13 13 13 13 13 13 13 13 13 12 12 13 13 13 13 13 13 13 13 13 13 13 13 13 13 13 13 13 13 13 13 13 13 12 12 12
13 13 13 13 12 12 12 12 12 12 12 12 12 12 12 13 13 13 13 13 13 13 13 13 13 13 13 13 12 12 13 12 13 13 12 12 12 12
12 12 12 12 12 12 12 12 12 12 12 12 12 12 12 12 12 13 13 12 12 12 12 12 12 12 12 12 12 12 12 12 12 12 12 12 12 12
12 12 12 12 12 12 12 12 12 12 12 12 12 12 12 12 12 12 12 12 12 12 12 12 12 12 12 12 12 12 12 12 12 12 12 12 12 12
12 12 11 12 12 12 12 12 12 12 12 12 12 12 12 12 12 12 12 12 12 12 12 12 12 12 12 12 12 12 12 12 12 12 12 12 11 11
12 12 11 11 11 11 11 12 12 12 12 12 12 12 12 12 12 12 12 12 12 12 12 12 12 12 12 12 12 12 12 12 12 12 11 11 11 11
12 11 11 11 11 11 11 11 11 11 11 11 11 12 12 12 12 12 12 12 12 12 12 12 12 12 12 12 12 12 12 12 12 12 11 11 11 11
12 11 11 11 11 11 11 11 11 11 11 11 11 11 11 11 11 11 11 11 11 11 11 11 11 11 11 11 11 11 11 11 11 11 11 11 11 11
11 11 11 11 11 11 11 11 11 11 11 11 11 11 11 11 11 11 11 11 11 11 11 11 11 11 11 11 11 11 11 11 11 11 11 11 11 11
Wind_Speed
2 2 2 2 2 2 2 2 2 2 2 2 1 2 4 5 7 6 6 8 8 7 7 7 6 6 6 5 5 5 6 7 8 10 10 10 10 10
2 2 2 3 2 2 2 2 2 2 2 2 1 1 2 4 6 6 6 9 9 9 9 8 8 7 7 7 6 6 5 6 8 9 9 9 10 10
3 2 2 3 2 2 2 2 1 1 2 2 1 1 2 2 3 3 5 6 7 9 10 10 10 9 9 9 8 7 7 7 7 8 9 9 9 10
3 2 2 3 2 2 2 2 2 2 2 3 2 2 2 3 3 3 3 4 5 9 11 11 11 11 11 10 10 9 8 8 8 8 8 8 9 10
3 3 3 3 3 2 2 2 2 3 2 3 3 2 2 2 2 3 3 2 4 7 10 11 12 12 12 12 12 11 10 9 9 9 9 9 8 9
3 3 3 3 3 3 3 3 3 3 3 3 3 3 3 3 3 3 3 3 3 4 4 7 9 12 12 12 12 12 11 11 10 10 9 9 9 9
3 3 3 3 3 3 4 3 3 3 4 4 3 3 3 3 3 3 4 3 3 3 3 4 5 5 7 10 11 12 12 11 11 11 11 10 10 9
4 3 3 2 2 3 4 4 4 5 5 4 4 4 4 3 2 3 3 2 3 3 3 4 3 4 5 7 10 13 13 12 12 12 11 11 10 10
4 3 4 3 2 2 4 5 5 6 6 5 5 5 4 4 4 4 4 4 4 3 3 4 3 4 3 6 12 14 14 14 14 13 13 12 12 12
4 4 3 3 3 3 4 4 4 5 6 6 6 6 6 4 5 5 5 5 3 3 3 4 3 3 3 4 10 14 15 15 14 14 13 13 12 12
5 3 3 3 3 3 4 4 4 5 5 5 6 6 7 7 5 3 3 4 4 3 3 3 3 3 2 2 6 12 14 14 15 14 13 13 13 12
3 2 3 3 3 3 3 3 4 4 4 4 4 5 7 8 9 7 5 5 4 3 3 2 2 1 2 2 3 5 8 11 14 14 14 13 13 9
3 2 1 2 3 4 4 4 5 5 4 4 4 4 5 5 6 7 7 6 5 4 3 3 2 2 2 2 2 3 5 5 7 8 12 14 13 10
3 3 2 2 4 5 5 5 6 4 4 4 4 4 4 4 5 5 6 6 6 6 5 4 3 4 3 3 2 3 4 4 5 5 6 9 11 13
3 4 4 5 5 5 7 7 5 4 4 4 5 4 4 4 4 4 5 5 5 7 7 5 4 4 4 4 3 3 3 3 4 4 5 5 5 5
2 3 4 6 6 6 5 5 5 4 4 4 4 4 3 3 3 3 3 3 4 5 5 5 5 4 4 4 3 3 3 3 4 4 4 4 4 6
2 3 3 3 3 3 4 4 4 4 4 4 4 4 3 3 3 2 2 2 3 4 3 3 4 4 5 4 4 4 4 3 3 4 3 3 3 4
2 3 4 4 4 4 3 3 3 3 3 3 3 3 3 3 3 2 2 2 3 4 4 4 3 3 3 4 5 5 4 3 3 3 3 3 3 4
3 4 4 4 4 4 4 3 3 2 2 2 3 3 3 3 3 3 3 3 3 3 4 4 4 4 4 5 4 4 4 3 3 3 4 3 4 4
4 4 4 4 3 3 3 3 3 3 3 3 3 3 3 3 3 3 3 3 3 4 3 3 4 5 5 5 3 3 5 5 4 4 3 3 3 4
4 4 3 3 3 3 3 3 3 3 2 3 3 3 3 3 3 3 3 4 4 3 3 3 4 5 3 2 3 3 3 5 5 4 4 3 3 3
3 3 3 3 3 2 2 2 2 2 3 3 3 3 3 3 3 3 3 3 3 3 3 3 3 3 3 3 4 3 3 2 4 5 5 6 4 4
3 3 2 3 3 2 2 3 3 3 3 3 3 3 3 3 3 3 3 3 3 3 3 3 3 2 3 4 4 3 3 3 3 3 3 5 7 7
Wind_Direction
277 270 272 277 277 287 278 240 228 256 275 245 198 157 139 133 151 156 153 167 172 179 185 191 192 193 198 201 206 210 215 218 216 213 214 217 217 215
278 279 277 285 286 270 275 283 267 242 264 273 262 160 140 161 166 166 166 175 184 192 195 198 200 201 203 204 206 209 213 218 218 215 213 214 215 212
276 269 273 280 292 295 283 283 271 232 237 270 295 213 174 169 158 175 184 184 192 200 203 205 207 208 208 208 207 210 215 218 214 213 216 215 214 214
270 271 267 275 278 288 285 274 268 243 212 234 257 242 207 185 182 203 198 202 198 205 204 208 210 211 211 211 211 212 213 215 215 216 216 215 216 216
273 266 260 266 268 275 277 268 266 260 229 221 243 236 216 203 198 213 212 219 229 212 208 211 213 215 215 214 213 213 212 214 215 216 216 213 210 211
273 268 262 256 252 254 259 255 253 262 255 233 227 220 213 207 202 211 222 227 235 233 218 208 206 212 217 216 215 214 213 213 214 214 214 212 210 210
267 269 265 258 249 250 260 257 258 257 258 252 232 234 230 211 214 214 226 229 229 235 226 211 190 201 214 218 217 214 212 211 211 211 211 211 211 211
265 270 268 239 229 235 266 263 253 247 249 253 254 242 242 242 235 235 234 234 244 236 227 233 201 203 198 206 207 204 205 207 208 210 212 213 213 214
262 263 270 265 234 248 251 253 255 251 241 241 252 254 246 244 241 245 241 237 238 236 237 241 222 219 202 205 193 196 199 203 206 207 211 214 216 217
259 246 247 262 264 264 262 258 257 255 244 238 243 251 245 237 235 235 242 249 245 237 229 242 239 233 220 188 192 194 200 204 205 207 210 214 217 220
263 249 231 242 255 258 253 258 267 271 266 249 234 237 233 235 230 230 240 244 250 247 235 233 236 242 225 206 203 200 202 208 210 210 212 216 219 219
270 246 234 242 247 252 252 260 267 274 275 273 260 245 235 227 218 214 221 234 245 250 240 232 235 228 251 236 201 204 210 216 217 215 215 219 218 214
272 270 263 237 243 247 248 252 257 274 282 269 259 253 242 228 218 213 213 218 229 242 226 217 232 225 227 233 224 203 199 200 206 217 219 220 217 208
265 272 282 275 261 254 252 250 262 271 269 265 259 254 245 233 224 218 209 213 222 232 229 216 230 226 227 233 237 218 210 200 193 196 202 210 216 217
264 278 286 275 271 259 250 248 250 250 252 256 256 255 249 235 223 216 216 216 225 237 228 221 224 228 218 232 224 216 219 218 204 195 192 194 196 199
283 297 273 260 262 259 257 247 235 235 242 252 259 262 258 244 224 221 224 221 230 242 233 231 231 233 230 229 225 222 215 208 202 198 193 194 201 197
279 282 267 256 250 245 239 239 240 232 237 247 258 265 258 251 245 226 217 219 230 234 231 229 227 225 221 225 233 228 221 215 197 187 188 197 201 202
232 260 263 253 252 256 253 248 245 244 241 255 262 267 262 251 244 233 214 225 235 237 229 216 215 229 245 249 234 227 224 213 201 193 197 197 211 209
228 252 258 251 250 253 256 253 251 246 239 245 258 264 261 262 254 242 230 228 236 240 231 211 204 210 230 247 256 229 211 214 208 212 212 204 214 211
235 245 255 252 247 250 253 252 251 242 238 238 247 259 262 262 257 244 238 234 240 247 241 226 215 213 219 232 242 244 223 211 207 211 218 220 214 200
251 253 254 255 254 254 259 255 256 255 249 244 242 246 249 252 257 253 252 244 239 241 238 236 232 215 219 227 242 235 226 218 206 204 211 214 218 211
241 250 258 269 262 255 257 258 259 263 261 253 248 251 253 253 259 256 255 251 244 245 248 245 230 215 221 228 239 233 232 231 225 223 221 215 206 211
241 243 244 256 258 252 253 251 250 252 255 264 258 255 256 251 249 253 249 239 235 241 242 247 241 224 226 227 234 237 235 235 232 216 244 244 223 223
Height
1520 1520 1520 1521 1521 1522 1522 1522 1523 1522 1522 1522 1523 1522 1522 1522 1522 1522 1523 1523 1524 1524 1524 1525 1525 1525 1526 1527 1527 1528 1529 1530 1531 1532 1533 1535 1536 1537
1517 1518 1518 1518 1518 1519 1519 1519 1520 1520 1519 1520 1520 1521 1520 1520 1520 1520 1521 1521 1521 1522 1522 1522 1523 1523 1523 1524 1524 1525 1526 1527 1528 1529 1530 1531 1533 1534
1515 1515 1515 1515 1515 1515 1516 1516 1516 1517 1516 1517 1518 1518 1519 1519 1518 1518 1518 1519 1519 1519 1520 1520 1520 1520 1520 1521 1522 1522 1523 1524 1525 1526 1527 1528 1529 1530
1512 1512 1511 1512 1512 1512 1512 1513 1513 1514 1514 1514 1515 1516 1516 1516 1516 1516 1516 1516 1516 1516 1517 1517 1517 1517 1518 1518 1519 1519 1520 1521 1522 1523 1524 1525 1526 1527
1509 1509 1508 1508 1508 1508 1509 1509 1510 1511 1511 1511 1511 1513 1513 1513 1513 1514 1514 1514 1514 1514 1514 1514 1514 1514 1515 1515 1516 1516 1517 1518 1519 1520 1521 1521 1522 1523
1505 1505 1505 1505 1505 1505 1505 1506 1506 1507 1508 1508 1508 1509 1510 1510 1511 1510 1510 1510 1510 1511 1511 1511 1511 1511 1511 1512 1512 1513 1514 1515 1516 1517 1517 1518 1519 1520
1502 1502 1502 1502 1502 1502 1502 1502 1503 1503 1504 1505 1505 1506 1506 1507 1507 1507 1507 1507 1507 1508 1507 1508 1508 1508 1508 1508 1509 1510 1511 1511 1512 1513 1514 1515 1516 1516
1499 1499 1499 1499 1498 1499 1499 1499 1500 1500 1500 1501 1501 1502 1502 1503 1503 1504 1504 1504 1504 1505 1505 1504 1505 1505 1505 1505 1506 1507 1507 1508 1509 1509 1510 1511 1512 1513
1496 1495 1496 1496 1496 1495 1495 1495 1496 1497 1497 1497 1497 1497 1498 1499 1500 1500 1500 1500 1500 1501 1502 1501 1502 1502 1502 1502 1503 1504 1504 1505 1505 1506 1506 1507 1508 1509
1492 1492 1492 1492 1492 1492 1492 1492 1492 1493 1493 1494 1493 1494 1494 1495 1496 1496 1496 1497 1497 1498 1499 1498 1499 1499 1499 1500 1500 1501 1501 1501 1502 1502 1503 1504 1504 1505
1489 1489 1489 1489 1489 1489 1489 1488 1488 1489 1489 1490 1490 1490 1490 1491 1491 1492 1493 1493 1493 1493 1495 1495 1495 1496 1496 1497 1497 1498 1498 1498 1499 1499 1500 1500 1501 1501
1486 1486 1486 1486 1486 1486 1485 1485 1484 1485 1485 1485 1485 1486 1486 1486 1487 1488 1488 1489 1489 1490 1490 1491 1492 1492 1493 1493 1494 1494 1494 1495 1495 1496 1496 1497 1497 1498
1483 1483 1483 1483 1482 1482 1482 1482 1481 1482 1481 1482 1481 1481 1482 1482 1482 1483 1484 1485 1485 1486 1487 1488 1488 1489 1489 1490 1490 1491 1491 1491 1492 1492 1493 1494 1494 1495
1480 1480 1480 1480 1479 1479 1478 1478 1478 1478 1478 1478 1478 1478 1478 1478 1478 1479 1480 1481 1481 1482 1483 1484 1484 1485 1486 1486 1486 1487 1488 1488 1489 1489 1490 1490 1491 1491
1477 1477 1476 1476 1475 1475 1475 1475 1475 1474 1474 1474 1474 1474 1475 1475 1475 1476 1476 1477 1477 1478 1479 1480 1481 1481 1482 1483 1483 1484 1484 1485 1485 1486 1486 1486 1487 1487
1473 1473 1473 1472 1472 1471 1471 1471 1471 1471 1471 1471 1471 1471 1472 1472 1472 1473 1473 1473 1474 1474 1475 1476 1477 1478 1478 1479 1480 1480 1481 1482 1482 1482 1483 1483 1483 1483
1470 1470 1469 1469 1468 1468 1468 1468 1468 1468 1468 1468 1468 1469 1469 1469 1469 1470 1470 1470 1470 1470 1471 1472 1473 1474 1475 1476 1477 1477 1478 1478 1479 1479 1479 1479 1479 1479
1467 1466 1466 1466 1465 1465 1465 1465 1465 1465 1465 1465 1466 1466 1466 1466 1466 1467 1467 1467 1467 1467 1468 1469 1470 1471 1472 1472 1473 1473 1474 1474 1474 1475 1475 1475 1475 1476
1464 1464 1464 1463 1462 1462 1462 1462 1462 1462 1462 1462 1463 1463 1463 1463 1463 1463 1464 1464 1464 1464 1464 1465 1466 1466 1467 1467 1468 1469 1470 1470 1471 1471 1471 1471 1471 1472
1461 1461 1461 1461 1460 1459 1459 1459 1459 1459 1459 1460 1460 1460 1460 1460 1460 1460 1460 1461 1461 1461 1461 1461 1461 1461 1462 1463 1464 1465 1466 1466 1467 1467 1468 1468 1468 1469
1458 1458 1458 1457 1457 1456 1456 1455 1455 1456 1456 1457 1457 1457 1457 1457 1457 1457 1457 1457 1457 1457 1457 1457 1458 1459 1459 1460 1461 1461 1462 1462 1463 1463 1464 1465 1465 1465
1454 1454 1454 1454 1453 1453 1453 1452 1452 1453 1453 1454 1454 1454 1454 1454 1454 1454 1454 1454 1454 1454 1454 1455 1455 1456 1456 1456 1456 1457 1457 1458 1459 1459 1460 1461 1461 1461
1451 1451 1450 1450 1450 1449 1449 1449 1449 1450 1450 1450 1450 1451 1451 1451 1451 1451 1451 1451 1451 1451 1451 1451 1452 1452 1452 1452 1453 1453 1453 1454 1454 1455 1456 1457 1458 1458